QPF
0.00 0.00 0.00 0.00 0.00 0.00 0.00 0.00 0.00 0.00 0.00 0.00 0.01 0.05 0.08 0.09 0.03 0.01 0.02 0.04 0.01 0.03 0.06 0.03 0.03 0.08 0.09 0.11 0.05 0.03 0.05 0.06 0.02 0.01 0.02 0.00 0.00 0.00 0.00 0.01 0.03 0.02 0.05
0.00 0.00 0.00 0.00 0.00 0.00 0.00 0.00 0.00 0.00 0.00 0.00 0.10 0.19 0.21 0.12 0.07 0.05 0.01 0.01 0.02 0.01 0.03 0.03 0.03 0.03 0.02 0.03 0.03 0.10 0.07 0.07 0.05 0.04 0.00 0.00 0.00 0.00 0.00 0.00 0.00 0.03 0.07
0.00 0.00 0.00 0.00 0.00 0.00 0.00 0.00 0.00 0.00 0.02 0.12 0.30 0.33 0.24 0.25 0.19 0.09 0.05 0.03 0.02 0.02 0.04 0.02 0.04 0.04 0.04 0.00 0.00 0.03 0.08 0.05 0.05 0.02 0.00 0.01 0.01 0.00 0.00 0.00 0.00 0.00 0.02
0.00 0.00 0.00 0.00 0.00 0.00 0.00 0.00 0.06 0.15 0.26 0.45 0.62 0.48 0.30 0.19 0.06 0.02 0.02 0.02 0.00 0.00 0.00 0.01 0.03 0.07 0.03 0.00 0.00 0.07 0.10 0.03 0.03 0.02 0.02 0.01 0.01 0.00 0.00 0.00 0.00 0.00 0.01
0.00 0.00 0.00 0.00 0.00 0.00 0.01 0.07 0.29 0.50 0.50 0.31 0.22 0.11 0.05 0.05 0.05 0.03 0.01 0.00 0.01 0.00 0.00 0.00 0.00 0.00 0.01 0.00 0.01 0.01 0.03 0.00 0.00 0.00 0.00 0.00 0.01 0.01 0.00 0.00 0.00 0.00 0.01
0.00 0.00 0.00 0.00 0.00 0.04 0.09 0.13 0.24 0.32 0.18 0.14 0.05 0.01 0.00 0.03 0.01 0.00 0.01 0.00 0.01 0.00 0.01 0.01 0.03 0.03 0.00 0.00 0.03 0.02 0.01 0.03 0.06 0.04 0.01 0.00 0.02 0.02 0.02 0.02 0.02 0.01 0.01
0.00 0.02 0.06 0.05 0.05 0.11 0.10 0.03 0.02 0.00 0.00 0.00 0.00 0.00 0.00 0.00 0.00 0.00 0.01 0.01 0.01 0.02 0.04 0.08 0.08 0.04 0.01 0.00 0.00 0.01 0.00 0.03 0.04 0.06 0.00 0.01 0.00 0.05 0.02 0.11 0.04 0.02 0.01
0.00 0.00 0.01 0.01 0.02 0.01 0.01 0.01 0.00 0.00 0.00 0.00 0.00 0.00 0.00 0.00 0.00 0.00 0.02 0.02 0.03 0.01 0.02 0.03 0.04 0.01 0.00 0.00 0.02 0.02 0.00 0.00 0.01 0.01 0.00 0.01 0.02 0.04 0.03 0.03 0.00 0.00 0.00
0.00 0.00 0.00 0.00 0.00 0.00 0.00 0.00 0.00 0.00 0.00 0.00 0.00 0.00 0.00 0.00 0.00 0.00 0.00 0.00 0.00 0.00 0.00 0.00 0.00 0.00 0.00 0.02 0.02 0.02 0.01 0.00 0.00 0.00 0.00 0.00 0.02 0.02 0.02 0.01 0.01 0.00 0.00
0.00 0.00 0.00 0.00 0.00 0.00 0.00 0.00 0.00 0.00 0.00 0.00 0.00 0.00 0.00 0.00 0.00 0.00 0.00 0.00 0.00 0.00 0.00 0.00 0.00 0.00 0.00 0.00 0.00 0.00 0.00 0.00 0.00 0.00 0.00 0.00 0.00 0.01 0.00 0.00 0.01 0.02 0.02
0.00 0.00 0.00 0.00 0.00 0.00 0.00 0.00 0.00 0.00 0.00 0.00 0.00 0.00 0.00 0.00 0.00 0.00 0.00 0.00 0.00 0.00 0.00 0.00 0.00 0.00 0.00 0.00 0.00 0.00 0.00 0.00 0.00 0.00 0.00 0.00 0.00 0.01 0.01 0.00 0.04 0.10 0.11
0.00 0.00 0.00 0.00 0.00 0.00 0.00 0.00 0.00 0.00 0.00 0.00 0.00 0.00 0.00 0.00 0.00 0.00 0.00 0.00 0.00 0.00 0.00 0.00 0.00 0.00 0.00 0.00 0.00 0.00 0.00 0.00 0.00 0.00 0.00 0.00 0.00 0.00 0.00 0.01 0.03 0.05 0.03
0.00 0.00 0.00 0.00 0.00 0.00 0.00 0.00 0.00 0.00 0.00 0.00 0.00 0.00 0.00 0.00 0.00 0.00 0.00 0.00 0.00 0.00 0.00 0.00 0.00 0.00 0.00 0.00 0.00 0.00 0.00 0.00 0.00 0.00 0.00 0.00 0.00 0.00 0.00 0.00 0.00 0.00 0.01
0.00 0.00 0.00 0.00 0.00 0.00 0.00 0.00 0.00 0.00 0.00 0.00 0.00 0.00 0.00 0.00 0.00 0.00 0.00 0.00 0.00 0.00 0.00 0.00 0.00 0.00 0.00 0.00 0.00 0.00 0.00 0.00 0.00 0.00 0.00 0.00 0.00 0.00 0.00 0.00 0.00 0.01 0.00
0.00 0.00 0.00 0.00 0.00 0.00 0.00 0.00 0.00 0.00 0.00 0.00 0.00 0.00 0.00 0.00 0.00 0.00 0.00 0.00 0.00 0.00 0.00 0.00 0.00 0.00 0.00 0.00 0.00 0.00 0.00 0.00 0.00 0.00 0.00 0.00 0.00 0.00 0.00 0.00 0.00 0.01 0.00
0.00 0.00 0.00 0.00 0.00 0.00 0.00 0.00 0.00 0.00 0.00 0.00 0.00 0.00 0.00 0.00 0.00 0.00 0.00 0.00 0.00 0.00 0.00 0.00 0.00 0.00 0.00 0.00 0.00 0.00 0.00 0.00 0.00 0.00 0.00 0.00 0.00 0.00 0.00 0.00 0.00 0.00 0.00
0.00 0.00 0.00 0.00 0.00 0.00 0.00 0.00 0.00 0.00 0.00 0.00 0.00 0.00 0.00 0.00 0.00 0.00 0.00 0.00 0.00 0.00 0.00 0.00 0.00 0.00 0.00 0.00 0.00 0.00 0.00 0.00 0.00 0.00 0.00 0.00 0.00 0.00 0.00 0.00 0.00 0.00 0.00
0.00 0.00 0.00 0.00 0.00 0.00 0.00 0.00 0.00 0.00 0.00 0.00 0.00 0.00 0.00 0.00 0.00 0.00 0.00 0.00 0.00 0.00 0.00 0.00 0.00 0.00 0.00 0.00 0.00 0.00 0.00 0.00 0.00 0.00 0.00 0.00 0.00 0.00 0.00 0.00 0.00 0.00 0.00
0.00 0.00 0.00 0.00 0.00 0.00 0.00 0.00 0.00 0.00 0.00 0.00 0.00 0.00 0.00 0.00 0.00 0.00 0.00 0.00 0.00 0.00 0.00 0.00 0.00 0.00 0.00 0.00 0.00 0.00 0.00 0.00 0.00 0.00 0.00 0.00 0.00 0.00 0.00 0.00 0.00 0.00 0.00
0.00 0.00 0.00 0.00 0.00 0.00 0.00 0.00 0.00 0.00 0.00 0.00 0.00 0.00 0.00 0.00 0.00 0.00 0.00 0.00 0.00 0.00 0.00 0.00 0.00 0.00 0.00 0.00 0.00 0.00 0.00 0.00 0.00 0.00 0.00 0.00 0.00 0.00 0.00 0.00 0.00 0.00 0.00
0.00 0.00 0.00 0.00 0.00 0.00 0.00 0.00 0.00 0.00 0.00 0.00 0.00 0.00 0.00 0.00 0.00 0.00 0.00 0.00 0.00 0.00 0.00 0.00 0.00 0.00 0.00 0.00 0.00 0.00 0.00 0.00 0.00 0.00 0.00 0.00 0.00 0.00 0.00 0.00 0.00 0.00 0.00
0.00 0.00 0.00 0.00 0.00 0.00 0.00 0.00 0.00 0.00 0.00 0.00 0.00 0.00 0.00 0.00 0.00 0.00 0.00 0.00 0.00 0.00 0.00 0.00 0.00 0.00 0.00 0.00 0.00 0.00 0.00 0.00 0.00 0.00 0.00 0.00 0.00 0.00 0.00 0.00 0.00 0.00 0.00
0.00 0.00 0.00 0.00 0.00 0.00 0.00 0.00 0.00 0.00 0.00 0.00 0.00 0.00 0.00 0.00 0.00 0.00 0.00 0.00 0.00 0.00 0.00 0.00 0.00 0.00 0.00 0.00 0.00 0.00 0.00 0.00 0.00 0.00 0.00 0.00 0.00 0.00 0.00 0.00 0.00 0.00 0.00
0.00 0.00 0.00 0.00 0.00 0.00 0.00 0.00 0.00 0.00 0.00 0.00 0.00 0.00 0.00 0.00 0.00 0.00 0.00 0.00 0.00 0.00 0.00 0.00 0.00 0.00 0.00 0.00 0.00 0.00 0.00 0.00 0.00 0.00 0.00 0.00 0.00 0.00 0.00 0.00 0.00 0.00 0.00
0.00 0.00 0.00 0.00 0.00 0.00 0.00 0.00 0.00 0.00 0.00 0.00 0.00 0.00 0.00 0.00 0.00 0.00 0.00 0.00 0.00 0.00 0.00 0.00 0.00 0.00 0.00 0.00 0.00 0.00 0.00 0.00 0.00 0.00 0.00 0.00 0.00 0.00 0.00 0.00 0.00 0.00 0.00
0.00 0.00 0.00 0.00 0.00 0.00 0.00 0.00 0.00 0.00 0.00 0.00 0.00 0.00 0.00 0.00 0.00 0.00 0.00 0.00 0.00 0.00 0.00 0.00 0.00 0.00 0.00 0.00 0.00 0.00 0.00 0.00 0.00 0.00 0.00 0.00 0.00 0.00 0.00 0.00 0.00 0.00 0.00
MSLP
1011.51 1011.80 1012.25 1012.72 1012.99 1013.22 1013.67 1013.99 1014.21 1014.33 1014.45 1014.75 1015.19 1016.09 1016.50 1016.60 1016.64 1016.61 1016.52 1016.32 1016.14 1016.06 1016.04 1016.09 1015.96 1015.94 1015.97 1016.15 1016.21 1016.17 1016.17 1016.50 1016.57 1015.72 1015.62 1014.97 1014.45 1014.41 1014.40 1014.42 1014.73 1014.88 1014.91
1010.98 1011.41 1011.66 1012.02 1012.50 1012.78 1013.06 1013.41 1013.71 1013.85 1014.08 1014.45 1015.50 1016.09 1016.24 1016.40 1016.34 1016.10 1015.82 1015.43 1015.49 1015.58 1015.56 1015.46 1015.46 1015.66 1015.51 1015.64 1015.80 1015.65 1015.70 1015.74 1015.90 1015.64 1015.02 1014.69 1014.40 1014.08 1014.08 1014.06 1013.97 1014.11 1014.18
1010.69 1010.67 1011.06 1011.33 1011.81 1012.09 1012.53 1012.95 1013.34 1013.57 1013.81 1014.67 1015.42 1015.89 1016.53 1016.57 1016.08 1015.53 1014.95 1014.79 1014.14 1014.20 1014.51 1014.83 1014.79 1015.00 1015.26 1015.42 1015.39 1015.10 1014.92 1014.80 1014.87 1014.98 1014.55 1014.27 1013.84 1013.56 1013.54 1013.45 1013.47 1013.64 1013.76
1010.30 1010.53 1010.82 1011.10 1011.48 1011.98 1012.27 1012.81 1013.16 1013.76 1014.23 1014.92 1015.27 1015.24 1014.69 1014.27 1014.02 1013.91 1014.18 1013.93 1014.36 1014.60 1014.86 1014.79 1014.88 1014.72 1015.03 1015.05 1014.73 1014.51 1014.45 1014.57 1014.51 1014.55 1014.34 1014.06 1013.88 1013.68 1013.80 1013.62 1013.65 1013.58 1013.33
1010.38 1010.61 1010.70 1011.02 1011.30 1011.54 1012.37 1012.68 1013.43 1013.76 1012.65 1013.26 1014.37 1013.52 1013.30 1014.21 1013.93 1013.89 1014.21 1013.97 1014.20 1014.69 1014.75 1014.49 1014.57 1014.79 1014.30 1014.42 1014.45 1014.21 1014.11 1014.05 1014.04 1014.03 1013.96 1013.98 1013.64 1013.64 1013.41 1013.13 1013.26 1013.29 1013.16
1010.66 1010.74 1010.89 1011.28 1011.60 1011.94 1012.34 1013.05 1013.18 1013.72 1014.21 1014.05 1013.87 1013.64 1014.24 1014.18 1013.96 1014.05 1014.13 1014.09 1014.33 1014.37 1014.17 1014.16 1014.37 1013.92 1014.06 1013.77 1013.68 1013.56 1013.73 1013.50 1013.44 1013.61 1013.43 1013.16 1012.76 1013.01 1012.80 1012.82 1012.86 1012.93 1012.94
1011.32 1011.35 1011.49 1011.78 1011.94 1012.21 1012.58 1012.89 1013.28 1013.70 1013.94 1014.02 1013.92 1014.22 1014.47 1014.36 1014.27 1014.05 1013.96 1014.31 1014.34 1014.16 1013.96 1013.71 1013.86 1014.31 1014.13 1013.93 1013.41 1013.34 1012.82 1012.97 1012.99 1013.11 1013.06 1012.73 1012.44 1012.44 1012.40 1012.49 1012.33 1012.22 1012.06
1012.09 1012.16 1012.29 1012.34 1012.43 1012.71 1012.84 1013.24 1013.70 1013.94 1014.01 1014.03 1014.24 1014.40 1014.51 1014.77 1014.43 1014.31 1014.32 1014.31 1014.19 1014.16 1014.12 1014.37 1014.50 1014.39 1014.23 1013.83 1013.34 1012.98 1012.72 1012.82 1012.72 1012.68 1012.61 1012.40 1012.15 1012.03 1011.91 1011.78 1011.75 1011.77 1012.02
1012.68 1012.67 1012.77 1012.88 1013.05 1013.25 1013.55 1013.82 1014.08 1014.25 1014.41 1014.60 1014.81 1014.99 1015.17 1015.24 1014.78 1014.46 1014.27 1014.22 1014.30 1014.34 1014.41 1014.36 1014.40 1014.27 1014.08 1013.88 1013.56 1013.29 1013.03 1012.85 1012.41 1012.32 1012.24 1012.11 1011.71 1011.36 1011.37 1011.45 1011.51 1011.72 1012.07
1013.14 1013.20 1013.19 1013.25 1013.40 1013.72 1013.94 1014.15 1014.41 1014.57 1014.87 1015.15 1015.31 1015.38 1015.52 1015.56 1015.49 1015.20 1014.85 1014.70 1014.60 1014.39 1014.27 1014.29 1014.32 1014.37 1014.35 1014.11 1013.80 1013.46 1013.38 1013.02 1012.61 1012.35 1012.20 1012.12 1011.78 1011.32 1011.09 1011.23 1011.28 1011.53 1011.82
1013.42 1013.41 1013.56 1013.70 1013.88 1014.00 1014.14 1014.35 1014.63 1014.87 1015.16 1015.45 1015.59 1015.72 1015.72 1015.71 1015.68 1015.49 1015.34 1015.08 1014.95 1014.80 1014.86 1014.80 1015.04 1015.03 1014.68 1014.32 1014.11 1013.84 1013.51 1013.10 1012.81 1012.64 1012.50 1012.36 1012.09 1011.90 1011.70 1011.49 1011.43 1011.41 1011.36
1013.52 1013.62 1013.78 1013.90 1013.98 1014.19 1014.37 1014.58 1014.72 1014.99 1015.35 1015.67 1015.80 1015.91 1016.06 1016.11 1016.07 1015.85 1015.70 1015.59 1015.41 1015.17 1015.04 1014.92 1014.94 1014.89 1014.79 1014.45 1014.19 1013.89 1013.58 1013.28 1013.04 1012.82 1012.72 1012.63 1012.48 1012.33 1012.39 1012.26 1011.89 1011.76 1011.62
1013.60 1013.76 1013.94 1014.04 1014.16 1014.31 1014.47 1014.73 1015.01 1015.34 1015.53 1015.74 1015.86 1015.95 1016.10 1016.29 1016.37 1016.31 1016.12 1015.97 1015.81 1015.58 1015.51 1015.34 1015.02 1014.80 1014.71 1014.58 1014.36 1013.99 1013.68 1013.54 1013.34 1013.34 1013.37 1013.20 1013.10 1013.05 1012.93 1012.94 1012.75 1012.65 1012.54
1013.76 1013.92 1014.07 1014.16 1014.33 1014.47 1014.62 1014.76 1015.04 1015.35 1015.53 1015.71 1015.83 1016.00 1016.21 1016.36 1016.48 1016.49 1016.42 1016.34 1016.14 1015.79 1015.54 1015.26 1015.15 1014.98 1014.79 1014.69 1014.49 1014.34 1014.11 1013.94 1013.85 1013.76 1013.81 1013.88 1013.87 1013.78 1013.66 1013.58 1013.49 1013.47 1013.41
1013.87 1014.01 1014.15 1014.32 1014.47 1014.62 1014.82 1014.97 1015.06 1015.24 1015.35 1015.50 1015.67 1015.88 1016.13 1016.35 1016.48 1016.58 1016.55 1016.47 1016.44 1016.17 1015.75 1015.17 1014.95 1014.78 1014.74 1014.72 1014.63 1014.54 1014.37 1014.21 1014.09 1014.15 1014.19 1014.26 1014.31 1014.22 1014.23 1014.14 1014.03 1014.00 1014.06
1013.85 1014.04 1014.19 1014.27 1014.36 1014.48 1014.64 1014.83 1015.14 1015.28 1015.35 1015.41 1015.64 1015.89 1016.03 1016.27 1016.42 1016.55 1016.54 1016.49 1016.28 1015.91 1015.62 1015.39 1015.25 1015.05 1014.88 1014.78 1014.62 1014.49 1014.41 1014.43 1014.48 1014.41 1014.45 1014.58 1014.66 1014.57 1014.62 1014.70 1014.62 1014.74 1014.84
1013.67 1013.95 1014.10 1014.24 1014.33 1014.44 1014.38 1014.65 1014.90 1015.36 1015.42 1015.54 1015.70 1015.99 1016.16 1016.23 1016.56 1016.56 1016.45 1016.34 1015.99 1015.86 1015.63 1015.47 1015.27 1015.00 1014.78 1014.71 1014.63 1014.57 1014.56 1014.65 1014.73 1014.66 1014.69 1014.73 1014.80 1014.94 1014.99 1015.16 1015.30 1015.27 1015.51
1013.46 1013.72 1013.93 1014.13 1014.17 1014.19 1014.25 1014.43 1014.70 1014.96 1015.19 1015.28 1015.52 1015.97 1016.23 1016.24 1016.48 1016.51 1016.32 1016.13 1015.82 1015.47 1015.25 1015.18 1015.09 1014.94 1014.87 1014.87 1014.81 1014.77 1014.76 1014.78 1014.74 1014.80 1014.87 1014.84 1014.92 1015.13 1015.36 1015.54 1015.65 1015.83 1015.97
1013.33 1013.57 1013.71 1013.88 1014.04 1014.06 1014.17 1014.32 1014.43 1014.56 1014.80 1014.94 1015.18 1015.74 1015.88 1016.08 1016.27 1016.15 1016.01 1015.71 1015.36 1015.13 1014.96 1014.84 1014.79 1014.71 1014.73 1014.85 1014.86 1014.87 1014.86 1014.81 1014.82 1014.87 1014.92 1015.10 1015.20 1015.30 1015.56 1015.71 1015.93 1016.08 1016.21
1013.18 1013.34 1013.46 1013.67 1013.88 1013.90 1013.96 1014.09 1014.23 1014.45 1014.63 1014.68 1014.82 1015.07 1015.41 1015.69 1015.64 1015.42 1015.27 1015.05 1014.82 1014.71 1014.61 1014.54 1014.63 1014.66 1014.70 1014.81 1014.88 1014.92 1014.96 1014.86 1014.84 1014.93 1015.09 1015.18 1015.31 1015.37 1015.52 1015.72 1015.90 1016.16 1016.38
1013.04 1013.21 1013.31 1013.52 1013.62 1013.68 1013.75 1013.81 1013.87 1014.03 1014.23 1014.29 1014.30 1014.37 1014.52 1014.72 1014.62 1014.57 1014.59 1014.42 1014.36 1014.24 1014.20 1014.19 1014.40 1014.42 1014.35 1014.51 1014.72 1014.78 1014.89 1014.89 1014.89 1014.89 1015.06 1015.24 1015.40 1015.58 1015.72 1016.04 1016.05 1016.36 1016.54
1012.80 1012.96 1013.16 1013.31 1013.45 1013.50 1013.47 1013.44 1013.47 1013.63 1013.86 1013.95 1013.86 1013.93 1014.21 1014.31 1014.09 1014.21 1014.26 1014.06 1013.92 1013.83 1013.81 1014.01 1014.12 1014.01 1013.92 1014.10 1014.37 1014.46 1014.51 1014.60 1014.63 1014.67 1014.84 1015.11 1015.42 1015.83 1016.05 1016.22 1016.32 1016.51 1016.62
1012.54 1012.74 1012.99 1013.15 1013.21 1013.16 1013.19 1013.29 1013.39 1013.48 1013.50 1013.47 1013.46 1013.51 1013.72 1013.55 1013.58 1013.70 1013.75 1013.61 1013.57 1013.56 1013.55 1013.76 1013.79 1013.65 1013.51 1013.77 1013.98 1014.18 1014.29 1014.29 1014.38 1014.54 1014.77 1015.08 1015.34 1015.59 1015.77 1016.00 1016.26 1016.45 1016.64
1012.29 1012.55 1012.80 1012.92 1012.97 1012.96 1012.98 1013.10 1013.18 1013.12 1013.08 1013.04 1013.05 1013.06 1013.06 1013.08 1013.20 1013.34 1013.34 1013.32 1013.40 1013.39 1013.32 1013.43 1013.45 1013.39 1013.38 1013.51 1013.73 1013.88 1013.98 1014.05 1014.20 1014.36 1014.51 1014.87 1015.15 1015.48 1015.66 1015.96 1016.23 1016.36 1016.53
1012.08 1012.32 1012.48 1012.59 1012.64 1012.68 1012.75 1012.78 1012.80 1012.74 1012.74 1012.72 1012.66 1012.63 1012.65 1012.78 1012.88 1012.94 1013.03 1013.11 1013.16 1013.10 1013.12 1013.10 1013.12 1013.05 1013.11 1013.27 1013.41 1013.57 1013.87 1014.05 1014.04 1014.14 1014.19 1014.45 1014.78 1015.15 1015.40 1015.70 1016.03 1016.22 1016.40
1011.79 1012.02 1012.20 1012.34 1012.41 1012.41 1012.42 1012.44 1012.47 1012.50 1012.49 1012.49 1012.40 1012.35 1012.37 1012.36 1012.37 1012.47 1012.61 1012.71 1012.85 1012.77 1012.77 1012.76 1012.83 1012.82 1012.89 1013.07 1013.25 1013.60 1013.86 1014.01 1014.24 1014.49 1014.45 1014.60 1014.84 1015.05 1015.30 1015.46 1015.79 1016.09 1016.30
Thickness
5819 5817 5814 5810 5806 5804 5798 5795 5793 5793 5792 5788 5780 5772 5766 5766 5766 5765 5766 5768 5768 5766 5766 5764 5763 5763 5761 5758 5757 5757 5755 5748 5743 5753 5755 5759 5762 5759 5757 5756 5754 5752 5751
5820 5817 5815 5813 5809 5805 5801 5797 5795 5793 5791 5787 5775 5768 5765 5763 5762 5763 5765 5769 5766 5763 5761 5759 5758 5758 5756 5752 5751 5751 5751 5748 5742 5741 5748 5751 5753 5756 5754 5751 5750 5749 5749
5819 5820 5816 5815 5812 5809 5803 5800 5797 5794 5789 5779 5771 5766 5757 5753 5755 5758 5762 5763 5764 5767 5760 5755 5749 5749 5749 5746 5745 5747 5747 5747 5745 5738 5741 5745 5749 5751 5749 5749 5746 5742 5740
5821 5819 5816 5814 5811 5807 5805 5798 5794 5787 5779 5768 5763 5754 5752 5762 5768 5769 5765 5765 5760 5755 5750 5746 5742 5741 5741 5740 5743 5744 5744 5740 5738 5736 5736 5736 5737 5739 5739 5736 5734 5731 5730
5816 5814 5814 5813 5810 5806 5798 5795 5788 5781 5779 5770 5761 5771 5775 5764 5766 5764 5759 5758 5753 5745 5742 5744 5741 5735 5742 5740 5740 5739 5740 5739 5736 5734 5732 5729 5729 5730 5730 5734 5728 5727 5725
5810 5809 5809 5803 5802 5800 5795 5787 5783 5771 5767 5767 5768 5769 5760 5760 5762 5757 5754 5751 5745 5740 5740 5739 5733 5736 5737 5740 5738 5736 5736 5734 5733 5728 5729 5728 5730 5727 5729 5727 5724 5720 5718
5800 5801 5799 5798 5795 5792 5788 5784 5777 5771 5768 5766 5766 5760 5754 5754 5753 5753 5750 5742 5737 5736 5734 5734 5731 5728 5730 5731 5733 5731 5734 5730 5730 5727 5724 5724 5726 5722 5722 5718 5719 5719 5719
5791 5790 5789 5789 5788 5784 5782 5777 5772 5767 5765 5763 5760 5757 5753 5749 5749 5745 5740 5736 5734 5730 5728 5723 5721 5721 5721 5724 5726 5726 5727 5723 5723 5721 5721 5720 5720 5719 5716 5716 5714 5713 5712
5783 5784 5783 5781 5778 5776 5771 5768 5765 5763 5760 5757 5754 5750 5747 5744 5744 5742 5739 5735 5728 5724 5720 5719 5717 5716 5716 5717 5718 5717 5717 5716 5717 5716 5714 5712 5712 5712 5709 5708 5704 5702 5700
5775 5776 5777 5777 5774 5769 5767 5765 5762 5759 5755 5751 5748 5746 5742 5740 5736 5735 5735 5731 5726 5723 5721 5718 5715 5713 5709 5709 5710 5709 5705 5706 5707 5706 5706 5704 5703 5703 5703 5701 5699 5693 5691
5772 5774 5773 5772 5770 5768 5766 5763 5760 5756 5752 5748 5745 5742 5739 5737 5734 5731 5728 5727 5724 5721 5716 5713 5708 5704 5705 5705 5704 5705 5704 5704 5702 5700 5697 5696 5695 5693 5692 5691 5689 5688 5687
5772 5771 5770 5769 5768 5766 5763 5760 5758 5754 5748 5744 5741 5737 5734 5732 5728 5726 5724 5722 5720 5718 5716 5715 5711 5707 5705 5704 5704 5702 5701 5700 5698 5694 5690 5687 5686 5684 5681 5680 5681 5680 5679
5771 5769 5768 5767 5766 5763 5760 5757 5753 5748 5745 5742 5740 5737 5733 5729 5725 5722 5720 5718 5716 5715 5712 5710 5708 5707 5705 5704 5700 5699 5698 5695 5691 5686 5681 5679 5677 5673 5672 5669 5669 5667 5665
5769 5768 5767 5765 5763 5761 5760 5757 5753 5748 5745 5742 5740 5736 5731 5727 5725 5722 5720 5717 5715 5715 5712 5711 5708 5705 5703 5700 5699 5695 5692 5688 5683 5679 5674 5671 5668 5665 5663 5661 5659 5656 5653
5767 5767 5766 5765 5763 5760 5758 5755 5753 5750 5748 5745 5741 5737 5732 5728 5725 5720 5717 5716 5712 5710 5708 5711 5710 5707 5703 5698 5694 5690 5686 5682 5678 5672 5667 5663 5660 5658 5655 5655 5654 5652 5647
5767 5767 5766 5765 5764 5763 5760 5758 5751 5749 5746 5743 5739 5737 5734 5728 5724 5721 5716 5713 5710 5709 5710 5708 5704 5702 5699 5696 5692 5687 5682 5676 5670 5666 5661 5657 5654 5652 5651 5647 5646 5644 5640
5769 5768 5767 5765 5763 5762 5763 5759 5756 5749 5745 5741 5738 5734 5730 5729 5722 5719 5716 5713 5712 5709 5710 5705 5703 5701 5699 5695 5690 5685 5679 5672 5665 5660 5654 5651 5649 5647 5645 5641 5639 5637 5634
5771 5768 5768 5766 5765 5764 5763 5759 5756 5752 5749 5747 5740 5735 5729 5727 5722 5719 5717 5714 5717 5714 5711 5707 5703 5700 5697 5692 5688 5682 5675 5669 5663 5657 5651 5649 5647 5645 5641 5638 5635 5632 5628
5770 5769 5768 5767 5765 5764 5762 5758 5757 5754 5750 5748 5744 5736 5731 5727 5722 5720 5717 5719 5718 5715 5713 5709 5705 5702 5698 5693 5687 5681 5675 5669 5663 5658 5654 5649 5647 5644 5640 5636 5633 5628 5627
5770 5769 5768 5767 5764 5763 5761 5759 5757 5753 5750 5748 5745 5741 5736 5731 5730 5729 5724 5723 5720 5717 5714 5711 5707 5703 5698 5693 5687 5681 5675 5670 5665 5661 5656 5652 5648 5645 5642 5636 5634 5629 5626
5768 5768 5766 5765 5764 5763 5761 5760 5759 5755 5751 5749 5747 5745 5741 5738 5736 5732 5728 5726 5723 5721 5717 5714 5708 5705 5702 5696 5689 5683 5677 5672 5668 5664 5659 5655 5651 5645 5641 5636 5633 5629 5625
5767 5766 5764 5763 5762 5761 5761 5762 5760 5756 5752 5749 5748 5746 5738 5738 5737 5733 5729 5728 5726 5723 5720 5714 5710 5709 5706 5699 5692 5687 5682 5677 5673 5668 5663 5658 5653 5646 5641 5635 5632 5626 5624
5766 5764 5762 5761 5761 5761 5760 5759 5757 5754 5753 5751 5750 5747 5743 5741 5738 5734 5731 5730 5728 5724 5719 5715 5713 5712 5709 5702 5695 5689 5686 5682 5678 5672 5667 5661 5655 5649 5645 5639 5634 5628 5625
5765 5763 5761 5761 5760 5760 5759 5757 5755 5753 5753 5752 5750 5748 5745 5743 5739 5735 5733 5731 5727 5725 5720 5717 5714 5712 5709 5704 5697 5692 5688 5684 5679 5674 5669 5663 5658 5651 5647 5640 5634 5629 5625
5764 5761 5760 5760 5759 5758 5757 5757 5755 5755 5753 5751 5750 5747 5745 5742 5738 5735 5733 5730 5727 5724 5721 5717 5715 5713 5709 5705 5700 5695 5690 5685 5681 5678 5674 5668 5663 5657 5651 5644 5637 5631 5626
5763 5760 5759 5757 5756 5756 5755 5755 5755 5753 5751 5749 5748 5746 5744 5741 5740 5737 5733 5729 5725 5723 5720 5718 5715 5713 5710 5705 5700 5696 5692 5687 5681 5676 5672 5667 5662 5657 5652 5647 5639 5632 5626